Home   Weather   Cayenne   Past weeks

Flag for French Guiana Past Weather in Cayenne, French Guiana — Yesterday and Last 2 Weeks

Now
81 °F

Passing clouds.


Feels Like: 87 °F
Forecast: 78 / 83 °F
Wind: 5 mph from East

Location: Cayenne / Rochambeau

Current Time: Apr 28, 2017 at 3:50:27 am

Latest Report: Apr 28, 2017 at 3:30 am


Visibility: N/A

Pressure: 29.83 "Hg

Humidity: 89%

Dew Point: 77 °F

Location of CayenneLocation

Past Weather in Cayenne — Graph

°F

Cayenne Temperature Yesterday

Maximum temperature yesterday: 86 °F (at 10:30 am)
Minimum temperature yesterday: 77 °F (at 12:30 am)
Average temperature yesterday: 81 °F

High & Low Weather Summary for the Past Weeks

 TemperatureHumidityPressure
High90 °F (Apr 25, 1:30 pm)100% (Apr 13, 3:30 am)29.98 "Hg (Apr 13, 3:30 am)
Low72 °F (Apr 20, 6:00 am)59% (Apr 18, 11:30 am)29.80 "Hg (Apr 13, 4:00 pm)
Average81 °F84%29.87 "Hg
* Reported Apr 13 2:00 am — Apr 28 2:30 am, Cayenne, Weather by CustomWeather, © 2017

Note: Actual official high and low records may vary slightly from our data, if they occured in-between our weather recording intervals... More about our weather records

Advertising

Cayenne Weather History for the Previous 24 Hours

Scroll right to see more
 ConditionsComfort  
Time TempWeatherWind HumidityBarometerVisibility
2:30 am
Fri, Apr 28
79 °FPartly cloudy.3 mph89%29.83 "HgN/A
2:00 am81 °FLight rain. Partly cloudy.10 mph84%29.86 "HgN/A
1:30 am81 °FPartly cloudy.2 mph89%29.86 "HgN/A
1:00 am81 °FPartly cloudy.No wind89%29.86 "HgN/A
12:30 am81 °FPassing clouds.No wind89%29.86 "HgN/A
12:00 am81 °FPassing clouds.3 mph89%29.89 "HgN/A
11:30 pm
Thu, Apr 27
81 °FPassing clouds.3 mph89%29.89 "HgN/A
11:00 pm79 °FPartly cloudy.2 mph94%29.89 "HgN/A
10:30 pm79 °FPartly cloudy.No wind94%29.89 "HgN/A
10:00 pm79 °FPartly cloudy.2 mph94%29.89 "HgN/A
9:30 pm79 °FPartly cloudy.5 mph89%29.89 "HgN/A
9:00 pm81 °FLight rain. Passing clouds.5 mph84%29.89 "HgN/A
8:30 pm81 °FPassing clouds.1 mph89%29.86 "HgN/A
8:00 pm81 °FPassing clouds.6 mph89%29.86 "HgN/A
7:30 pm81 °FPartly cloudy.3 mph89%29.86 "HgN/A
7:00 pm81 °FPartly cloudy.3 mph89%29.86 "HgN/A
6:30 pm81 °FBroken clouds.9 mph89%29.83 "HgN/A
6:00 pm82 °FBroken clouds.13 mph79%29.83 "HgN/A
5:30 pm82 °FPartly sunny.15 mph84%29.83 "HgN/A
5:00 pm84 °FBroken clouds.16 mph74%29.83 "HgN/A
4:30 pm84 °FBroken clouds.15 mph79%29.80 "HgN/A
4:00 pm86 °FPartly sunny.15 mph70%29.83 "HgN/A
3:30 pm84 °FMostly cloudy.14 mph74%29.83 "HgN/A
3:00 pm86 °FPartly sunny.16 mph70%29.83 "HgN/A
2:30 pm86 °FScattered clouds.18 mph75%29.83 "HgN/A
2:00 pm86 °FPartly sunny.16 mph70%29.86 "HgN/A
1:30 pm86 °FPartly sunny.16 mph75%29.86 "HgN/A
1:00 pm81 °FBroken clouds.7 mph89%29.89 "HgN/A
12:30 pm86 °FPartly sunny.13 mph75%29.89 "HgN/A
12:00 pm82 °FFog.9 mph84%29.92 "Hg2 mi
11:30 am84 °FPartly sunny.14 mph74%29.92 "HgN/A
11:00 am86 °FPartly sunny.15 mph70%29.92 "HgN/A
10:30 am86 °FPartly sunny.12 mph75%29.92 "HgN/A
9:30 am84 °FBroken clouds.12 mph79%29.92 "HgN/A
9:00 am82 °FPartly sunny.6 mph89%29.92 "HgN/A
8:30 am81 °FLight rain. Partly sunny.5 mph89%29.92 "Hg4 mi
8:00 am81 °FScattered clouds.No wind89%29.89 "HgN/A
7:30 am79 °FPartly sunny.No wind94%29.89 "HgN/A
7:00 am77 °FSunny.No wind94%29.86 "Hg10 mi
6:30 am77 °FPartly sunny.No wind94%29.86 "HgN/A
6:00 am77 °FPartly cloudy.2 mph94%29.86 "HgN/A
5:30 am77 °FPassing clouds.1 mph94%29.83 "HgN/A
5:00 am77 °FPassing clouds.No wind94%29.83 "HgN/A
4:30 am77 °FPassing clouds.No wind94%29.83 "HgN/A
4:00 am79 °FPassing clouds.No wind89%29.83 "HgN/A
3:30 am79 °FPassing clouds.No wind89%29.83 "Hg5 mi
3:00 am79 °FPassing clouds.No wind89%29.83 "HgN/A
Weather by CustomWeather, © 2017

See weather overviewHow to use our weather pages